User: anonymous   Login
Location: Unspecified
(0.0000°N, 0.0000°E)
Time: 12:58:30
(UTC+00:00)
Language:

SL-12 R/B(2) - Orbit

View from above orbital plane
View from above orbital plane
View from above satellite
View from above satellite

Ground track
Ground track

The orbit data is extracted from the following two-line orbital elements,

1 26486U 00051D   21101.27691951 -.00000064  00000-0  00000-0 0  9998
2 26486  62.8621  26.1915 7576594 270.9460 349.8344  1.45764809109647
Epoch (UTC): 11 April 2021 06:38:45
Eccentricity: 0.7576594
inclination: 62.8621°
perigee height: 1584 km
apogee height: 51373 km
right ascension of ascending node: 26.1915°
argument of perigee: 270.9460°
revolutions per day: 1.45764809
mean anomaly at epoch: 349.8344°
orbit number at epoch: 10964

The dashed part of the orbit path shows where the satellite is in the earth's shadow,  

DLR